FENGYUN 1C DEB

Satellite information

Favourite Embed

Satellite Type and Status

DEBRISIN ORBIT

Key statistics

Satellite FENGYUN 1C DEB at a glance.

Uptime

9555

Days in orbit

Revolutions

≈ 14.3

Per day

Orbit

SSO

Sun Synchronous Orbit

Inclination

98.8

Latest

Satellite identification and parameters

Extended collection of information and parameters for FENGYUN 1C DEB.

Object identification

Identified? True

Debris? True

Object name: FENGYUN 1C DEB

International designator: 1999-025AUT

Object number (NORAD): 30809

Object ID (CCSDS): 30809

Country: PEOPLES REPUBLIC OF CHINA (PRC)

Current information (Y/N): Y

RCS size: SMALL

Orbital parameters

Period: 100.87 minutes

Inclination: 98.7928 deg

SMA: 7177.96 km

Apoapsis: 835.99 km

Periapsis: 763.66 km

RAAN: 275.6592 deg

Eccentricy: 0.0050383

Argument of periapsis: 273.8561 deg

Mean anomaly: 85.686 deg

Mean motion: 14.2758243 rev/day

Mean motion (dot): 0.00002455 rev/day2

B* drag term: 0.0010022 1/REarth

Two-line elements (TLE)

Creation date: July 6, 2025, 10:36 p.m.

Reference frame: TEME

Reference center: EARTH

Epoch: July 6, 2025, 5:22 p.m. UTC

TLE line 0: 0 FENGYUN 1C DEB

TLE line 1: 1 30809U 99025AUT 25187.72384278 .00002455 00000-0 10022-2 0 9992

TLE line 2: 2 30809 98.7928 275.6592 0050383 273.8561 85.6860 14.27582430948653

Live tracking on map

Real-time ground track for satellite FENGYUN 1C DEB.

In-orbit conjunctions

A list of the most updated potential collisions computed for object FENGYUN 1C DEB.

Target Orbit TCA Probability of collision Miss distance Type
COSMOS 158 LEO 2025-05-16 17:00:40 0.000353984 989.0 (m) PAYLOAD
CZ-6A DEB LEO 2025-02-09 11:33:35 0.0001192556 974.0 (m) DEBRIS
NOAA 9 SSO 2025-01-06 16:25:51 0.001114697 30.0 (m) PAYLOAD
METEOR 2-9 LEO 2024-11-08 00:36:40 0.0001367038 414.0 (m) PAYLOAD
COSMOS 1624 LEO 2024-06-28 23:25:54 0.0001759877 175.0 (m) PAYLOAD

Associated space launch

Chinese polar orbiting meteorological satellite

FENGYUN 1C DEB was lifted into orbit during the mission ‘Long March 4B | Feng Yun 1C’, on board a Long March 4B space rocket.

The launch took place on May 10, 1999, 1:33 a.m. from Launch Complex 7.

For more information about the launch, click the button.

Launch to space Long March 4B | Feng Yun 1C
Long March 4B | Feng Yun 1C

Agency: N/A

Status: Launch Successful

Launch date: May 10, 1999, 1:33 a.m. UTC

Rocket: Long March 4B

Launch pad: Launch Complex 7

Location: Taiyuan Satellite Launch Center, People's Republic of China

...

Latest news about this satellite

There are no fresh news available about this satellite. Check back as we update our databases every day.


Newsletter sign-up

Weekly statistics, charts and insights to help you stay on top of the space industry.